User: anonymous   Login
Location: Hains Lake
(37.8540°N, 99.8578°W)
Time: 12:38:05
(UTC+00:00)
Language:

Cosmos 1655 Rocket - Orbit

View from above orbital plane
View from above orbital plane
View from above satellite
View from above satellite

Ground track
Ground track

The orbit data is extracted from the following two-line orbital elements,

1 15752U 85041B   20056.20334951 +.00000009 +00000-0 -65567-5 0  9992
2 15752 082.9493 301.4271 0022955 277.2518 082.6028 13.73117182740517
Epoch (UTC): 25 February 2020 04:52:49
Eccentricity: 0.0022955
inclination: 82.9493°
perigee height: 971 km
apogee height: 1005 km
right ascension of ascending node: 301.4271°
argument of perigee: 277.2518°
revolutions per day: 13.73117182
mean anomaly at epoch: 82.6028°
orbit number at epoch: 74051

The dashed part of the orbit path shows where the satellite is in the earth's shadow,  

DLR